Home > Weather > Radom > Past weeks

Flag for Poland Past Weather in Radom, Poland — Yesterday and Last 2 Weeks

Now
65 °F

Fog.


Feels Like: 65 °F
Forecast: 61 / 83 °F
Wind: 1 mph from Southeast

Location: Kielce

Current Time: Jul 30, 2016 at 10:53:08 PM

Latest Report: Jul 30, 2016 at 10:00 PM


Visibility: 0 mi

Pressure: 29.94 "Hg

Humidity: 100%

Dew Point: 65 °F

Location of RadomLocation

Past Weather in Radom — Graph

°F

Radom Temperature Yesterday

Maximum temperature yesterday: 77 °F (at 1:00 PM)
Minimum temperature yesterday: 62 °F (at 11:00 PM)
Average temperature yesterday: 68 °F

High & Low Weather Summary for the Past Weeks

 TemperatureHumidityPressure
High85 °F (Jul 26, 2:00 PM)100% (Jul 20, 4:00 AM)30.20 "Hg (Jul 20, 4:00 AM)
Low46 °F (Jul 21, 5:00 AM)27% (Jul 22, 4:00 PM)29.88 "Hg (Jul 29, 3:00 PM)
Average66 °F74%30.03 "Hg
* Reported Jul 15 9:00 PM — Jul 30 9:00 PM, Radom, Weather by CustomWeather, © 2016

Note: Actual official high and low records may vary slightly from our data, if they occured in-between our weather recording intervals... More about our weather records

Advertising

Radom Weather History for the Previous 24 Hours

Scroll right to see more
 ConditionsComfort  
Time TempWeatherWind HumidityBarometerVisibility
9:00 PM
Sat, Jul 30
68 °FFog.1 mph94%29.93 "Hg9 mi
8:00 PM71 °FPartly sunny.2 mph83%29.92 "Hg17 mi
7:00 PM72 °FOvercast.2 mph86%29.91 "Hg19 mi
6:00 PM73 °FPartly sunny.1 mph81%29.91 "Hg19 mi
5:00 PM70 °FPartly sunny.1 mph89%29.92 "Hg12 mi
4:00 PM76 °FOvercast.2 mph57%29.90 "Hg12 mi
3:00 PM79 °FOvercast.5 mph50%29.90 "Hg25 mi
2:00 PM80 °FScattered clouds.7 mph48%29.90 "Hg25 mi
1:00 PM79 °FPassing clouds.6 mph50%29.92 "Hg22 mi
12:00 PM79 °FScattered clouds.3 mph54%29.93 "Hg19 mi
11:00 AM76 °FPartly sunny.2 mph58%29.94 "Hg19 mi
10:00 AM74 °FOvercast.2 mph70%29.95 "Hg16 mi
9:00 AM69 °FScattered clouds.1 mph83%29.96 "Hg11 mi
8:00 AM64 °FFog.1 mph99%29.98 "Hg3 mi
7:00 AM59 °FFog.No wind100%29.98 "Hg0 mi
6:00 AM56 °FFog.1 mph100%29.98 "Hg0 mi
5:00 AM56 °FFog.No wind100%29.96 "Hg0 mi
4:00 AM56 °FFog.1 mph100%29.96 "Hg0 mi
3:00 AM57 °FFog.1 mph100%29.96 "Hg0 mi
2:00 AM58 °FFog.1 mph100%29.96 "Hg0 mi
1:00 AM58 °FFog.1 mph100%29.95 "Hg0 mi
12:00 AM60 °FFog.1 mph100%29.95 "Hg0 mi
11:00 PM
Fri, Jul 29
62 °FFog.1 mph94%29.94 "Hg2 mi
10:00 PM64 °FFog.1 mph94%29.93 "Hg4 mi
Weather by CustomWeather, © 2016

See weather overviewHow to use our weather pages